Date String (YYYY-MM-DD hh:mm:ss) UTC,Instrument flags,absolute air pressure of the measurement (hPa),sample flow rate (lpm),inlet stack bypass flow (lpm),air temperature of the measurement (°C),ambient temperature measured by the external sensor (°C),aerosol sample conditioner tube jacket temperature (°C),OPC LED temperature (°C),internal box temperature (°C),relative humidity of the measurement (%),span deviation,mass concentration of particles derived from Lorenz-Mie calculation of OPC scattering (μg/m³),mass concentration of particles derived from Lorenz-Mie calculation of OPC scattering (μg/m³),mass concentration of particles derived from Lorenz-Mie calculation of OPC scattering (μg/m³)
DateTimeUTC,F1_M11,P_M11,Q1_M11,Q2_M11,T1_M11,T2_M11,T3_M11,T4_M11,T5_M11,U1_M11,ZSPAN_M11,X0_M11,X2_M11,X1_M11
2024-04-04 10:00:00,SystemResetWarning,0827.1,5.00,000.00,023.1,022.2,000.0,031.8,024.9,012.6,0000.0,0004.56,0002.11,0001.55
2024-04-04 10:01:00,SystemResetWarning,0827.1,5.01,000.00,023.1,022.2,000.0,031.7,024.9,012.6,0000.0,0004.48,0002.09,0001.55
2024-04-04 10:02:00,SystemResetWarning,0827.1,5.01,000.00,023.0,022.2,000.0,031.7,024.9,012.6,0000.0,0004.53,0002.11,0001.56
2024-04-04 10:03:00,SystemResetWarning,0827.1,4.99,000.00,023.0,022.2,000.0,031.7,024.9,012.5,0000.0,0004.04,0002.16,0001.57
2024-04-04 10:04:00,SystemResetWarning,0827.1,4.99,000.00,023.0,022.2,000.0,031.7,024.9,012.6,0000.0,0003.59,0002.20,0001.58
2024-04-04 10:05:00,SystemResetWarning,0827.1,5.00,000.00,023.0,022.2,000.0,031.7,024.9,012.6,0000.0,0003.64,0002.20,0001.58
2024-04-04 10:06:00,SystemResetWarning,0827.1,5.00,000.00,023.0,022.2,000.0,031.7,024.9,012.4,0000.0,0003.76,0002.24,0001.59
2024-04-04 10:07:00,SystemResetWarning,0827.1,5.00,000.00,023.0,022.1,000.0,031.7,024.9,012.7,0000.0,0003.67,0002.23,0001.60
2024-04-04 10:08:00,SystemResetWarning,0827.1,5.00,000.00,023.0,022.1,000.0,031.7,024.8,012.7,0000.0,0003.57,0002.21,0001.60
2024-04-04 10:09:00,SystemResetWarning,0827.1,5.00,000.00,023.0,022.1,000.0,031.7,024.8,012.7,0000.0,0003.71,0002.24,0001.60
2024-04-04 10:10:00,SystemResetWarning,0827.2,5.00,000.00,023.0,022.1,000.0,031.7,024.8,012.7,0000.0,0003.66,0002.21,0001.60
2024-04-04 10:11:00,SystemResetWarning,0827.1,5.00,000.00,023.0,022.1,000.0,031.6,024.8,012.8,0000.0,0003.61,0002.21,0001.60
2024-04-04 10:12:00,SystemResetWarning,0827.1,5.00,000.00,023.0,022.1,000.0,031.6,024.8,012.8,0000.0,0004.10,0002.26,0001.60
2024-04-04 10:13:00,SystemResetWarning,0827.1,5.00,000.00,023.0,022.1,000.0,031.6,024.8,012.8,0000.0,0004.22,0002.22,0001.59
2024-04-04 10:14:00,SystemResetWarning,0827.1,5.00,000.00,022.9,022.1,000.0,031.6,024.8,012.7,0000.0,0004.08,0002.18,0001.59
2024-04-04 10:15:00,SystemResetWarning,0827.1,5.00,000.00,022.9,022.1,000.0,031.6,024.8,012.7,0000.0,0003.97,0002.13,0001.59
2024-04-04 10:16:00,SystemResetWarning,0827.1,5.00,000.00,022.9,022.1,000.0,031.6,024.8,012.7,0000.0,0003.82,0002.08,0001.59
2024-04-04 10:17:00,SystemResetWarning,0827.1,5.00,000.00,022.9,022.1,000.0,031.6,024.8,012.7,0000.0,0004.01,0002.10,0001.60
2024-04-04 10:18:00,SystemResetWarning,0827.1,5.00,000.00,022.9,022.1,000.0,031.6,024.8,012.6,0000.0,0004.30,0002.16,0001.60
2024-04-04 10:19:00,SystemResetWarning,0827.1,5.00,000.00,022.9,022.1,000.0,031.6,024.8,012.6,0000.0,0004.16,0002.15,0001.60
2024-04-04 10:20:00,SystemResetWarning,0827.1,5.01,000.00,022.9,022.1,000.0,031.6,024.8,012.7,0000.0,0004.04,0002.12,0001.59
2024-04-04 10:21:00,SystemResetWarning,0827.1,5.00,000.00,022.9,022.1,000.0,031.6,024.8,012.7,0000.0,0004.15,0002.17,0001.61
2024-04-04 10:22:00,SystemResetWarning,0827.0,5.00,000.00,022.9,022.1,000.0,031.6,024.8,012.7,0000.0,0004.16,0002.16,0001.61
2024-04-04 10:23:00,SystemResetWarning,0827.1,5.00,000.00,022.9,022.0,000.0,031.6,024.8,012.6,0000.0,0003.78,0002.13,0001.61
2024-04-04 10:24:00,SystemResetWarning,0827.0,5.00,000.00,022.9,022.0,000.0,031.5,024.7,012.6,0000.0,0003.65,0002.20,0001.62
2024-04-04 10:25:00,SystemResetWarning,0827.1,5.00,000.00,022.9,022.0,000.0,031.5,024.7,012.6,0000.0,0003.76,0002.23,0001.62
2024-04-04 10:26:00,SystemResetWarning,0827.1,5.00,000.00,022.9,022.0,000.0,031.5,024.7,012.8,0000.0,0003.78,0002.25,0001.62
2024-04-04 10:27:00,SystemResetWarning,0827.1,4.99,000.00,022.9,022.0,000.0,031.5,024.7,012.7,0000.0,0003.88,0002.30,0001.64
2024-04-04 10:28:00,SystemResetWarning,0827.0,5.00,000.00,022.9,022.0,000.0,031.5,024.7,012.7,0000.0,0003.84,0002.29,0001.63
2024-04-04 10:29:00,SystemResetWarning,0827.0,5.01,000.00,022.9,022.0,000.0,031.5,024.7,012.8,0000.0,0003.55,0002.23,0001.62
2024-04-04 10:30:00,SystemResetWarning,0827.1,5.00,000.00,022.8,022.0,000.0,031.5,024.7,012.8,0000.0,0003.44,0002.20,0001.62
2024-04-04 10:31:00,SystemResetWarning,0827.0,5.00,000.00,022.8,022.0,000.0,031.5,024.7,012.8,0000.0,0003.44,0002.21,0001.61
2024-04-04 10:32:00,SystemResetWarning,0827.0,5.00,000.00,022.8,022.0,000.0,031.5,024.7,012.8,0000.0,0003.46,0002.20,0001.60
2024-04-04 10:33:00,SystemResetWarning,0827.0,4.99,000.00,022.8,022.0,000.0,031.5,024.7,012.8,0000.0,0003.51,0002.22,0001.61
2024-04-04 10:34:00,SystemResetWarning,0827.0,5.00,000.00,022.8,022.0,000.0,031.5,024.6,013.0,0000.0,0003.60,0002.25,0001.62
2024-04-04 10:35:00,SystemResetWarning,0827.1,5.00,000.00,022.8,022.0,000.0,031.5,024.7,013.0,0000.0,0003.58,0002.23,0001.62
2024-04-04 10:36:00,SystemResetWarning,0827.1,5.00,000.00,022.8,022.0,000.0,031.4,024.6,013.0,0000.0,0003.61,0002.21,0001.61
2024-04-04 10:37:00,SystemResetWarning,0827.1,5.00,000.00,022.8,022.0,000.0,031.4,024.6,013.0,0000.0,0003.66,0002.21,0001.62
2024-04-04 10:38:00,SystemResetWarning,0827.0,5.00,000.00,022.8,021.9,000.0,031.4,024.6,013.1,0000.0,0003.74,0002.20,0001.60
2024-04-04 10:39:00,SystemResetWarning,0827.0,5.00,000.00,022.8,021.9,000.0,031.4,024.6,013.1,0000.0,0003.57,0002.16,0001.58
2024-04-04 10:40:00,SystemResetWarning,0827.0,5.00,000.00,022.8,021.9,000.0,031.4,024.6,013.1,0000.0,0003.54,0002.15,0001.57
2024-04-04 10:41:00,SystemResetWarning,0827.0,5.00,000.00,022.8,021.9,000.0,031.4,024.6,013.1,0000.0,0003.64,0002.17,0001.57
2024-04-04 10:42:00,SystemResetWarning,0827.1,4.99,000.00,022.8,021.9,000.0,031.4,024.6,013.1,0000.0,0003.55,0002.13,0001.57
2024-04-04 10:43:00,SystemResetWarning,0827.0,4.99,000.00,022.7,021.9,000.0,031.4,024.6,013.2,0000.0,0003.54,0002.12,0001.57
2024-04-04 10:44:00,SystemResetWarning,0827.0,5.00,000.00,022.7,021.9,000.0,031.4,024.6,013.2,0000.0,0003.53,0002.11,0001.58
2024-04-04 10:45:00,SystemResetWarning,0827.0,5.00,000.00,022.7,021.9,000.0,031.4,024.6,013.2,0000.0,0003.44,0002.09,0001.58
2024-04-04 10:46:00,SystemResetWarning,0827.0,5.00,000.00,022.7,021.9,000.0,031.4,024.6,013.2,0000.0,0003.44,0002.09,0001.58
2024-04-04 10:47:00,SystemResetWarning,0827.0,5.00,000.00,022.7,021.9,000.0,031.4,024.5,013.2,0000.0,0003.36,0002.11,0001.57
2024-04-04 10:48:00,SystemResetWarning,0827.0,5.01,000.00,022.7,021.9,000.0,031.3,024.5,013.2,0000.0,0003.33,0002.11,0001.57
2024-04-04 10:49:00,SystemResetWarning,0827.0,5.01,000.00,022.7,021.9,000.0,031.3,024.5,013.2,0000.0,0003.20,0002.09,0001.57
2024-04-04 10:50:00,SystemResetWarning,0827.0,5.01,000.00,022.7,021.8,000.0,031.3,024.5,013.2,0000.0,0003.17,0002.09,0001.58
2024-04-04 10:51:00,SystemResetWarning,0827.0,4.99,000.00,022.7,021.8,000.0,031.3,024.5,013.2,0000.0,0003.19,0002.09,0001.58
2024-04-04 10:52:00,SystemResetWarning,0827.0,4.99,000.00,022.7,021.8,000.0,031.3,024.5,013.2,0000.0,0003.22,0002.10,0001.57
2024-04-04 10:53:00,SystemResetWarning,0827.0,4.99,000.00,022.6,021.8,000.0,031.3,024.5,013.2,0000.0,0003.26,0002.11,0001.58
2024-04-04 10:54:00,SystemResetWarning,0827.1,5.01,000.00,022.6,021.8,000.0,031.3,024.5,013.0,0000.0,0003.22,0002.12,0001.58
2024-04-04 10:55:00,SystemResetWarning,0827.0,5.00,000.00,022.6,021.8,000.0,031.3,024.5,013.1,0000.0,0003.20,0002.12,0001.57
2024-04-04 10:56:00,SystemResetWarning,0827.1,5.00,000.00,022.6,021.8,000.0,031.3,024.5,013.0,0000.0,0003.26,0002.12,0001.56
2024-04-04 10:57:00,SystemResetWarning,0827.0,5.01,000.00,022.6,021.8,000.0,031.3,024.4,013.1,0000.0,0003.19,0002.09,0001.54
2024-04-04 10:58:00,SystemResetWarning,0827.0,5.01,000.00,022.6,021.8,000.0,031.3,024.4,013.2,0000.0,0003.15,0002.05,0001.54
2024-04-04 10:59:00,SystemResetWarning,0827.1,5.00,000.00,022.6,021.8,000.0,031.3,024.4,013.2,0000.0,0003.27,0002.05,0001.55
